Meath Environmental Platform

Observations for Trim Market St

Time AQI Temp °C Hum % Pres Pa CO μg/m³ H₂S μg/m³ NO μg/m³ NO₂ μg/m³ O₃ μg/m³ SO₂ μg/m³ PM1 μg/m³ PM2.5 μg/m³ PM10 μg/m³
Saturday 11 July 2026
23:31 1 20.8 71 51,452 0 0 0 11.15 26.09 0 4.28 6.38 10.01
23:29 1 20.8 71 51,844 0.03 0 0 8.26 17.01 0 5.7 7.36 12.49
23:27 1 20.9 71 52,128 0 0 0 7.94 24.2 0 5.7 8.33 12.49
23:21 1 20.9 71 52,348 0 0 0 4.36 12.11 0 3.56 6.89 10.64
23:20 1 20.9 71 52,427 0 0 0 7.48 14.09 0 4.99 6.9 10.02
23:19 1 21 71 52,565 0 0 0 10.15 18.55 0 3.56 6.9 10.02
23:18 1 21 71 52,725 0 0 0 4.36 6.06 0 6.41 7.87 11.27
23:17 1 21 71 52,877 0 0 0 7.37 14.71 0 4.99 7.39 10.65
23:16 1 21 70 53,082 0 0.2 0 11.38 26.31 0 5.7 7.4 10.65
23:15 1 21 70 53,240 0 0 0 6.99 13.98 0 5.7 7.4 11.28
23:14 1 21.1 70 53,333 0 0 0.06 8.98 17.78 0 4.28 5.95 8.78
23:13 1 21.1 70 53,415 0 0 0 5.47 8.73 0 4.28 6.43 10.03
23:12 1 21.1 70 53,464 0.24 0 0 7.38 19.38 0 4.28 5.95 8.78
23:11 1 21.1 70 53,525 1.56 0 0.92 7.78 6 0 5.7 6.44 10.66
23:10 1 21.1 70 53,628 0 0 0 5.09 0.29 0 5.7 7.42 10.66
23:09 1 21.1 70 53,780 0 0 0 12 31.26 0 5.7 6.94 10.66
23:08 1 21.2 70 53,926 0 0 0 8.79 16.62 0 4.99 6.46 9.41
23:06 1 21.2 70 54,065 0 0 0 4.7 12.03 0 4.28 5.98 10.04
23:05 1 21.2 70 54,166 0 0 0 9.91 12.61 0 4.99 9.87 13.81
23:04 1 21.2 70 54,274 0 0 0 8.92 22.63 0 5.7 8.42 13.19